sat.trackr.live / text

‹ back to catalog

STARLINK-36250

NORAD 68513 · 2026-068F

PAYLOAD ACTIVE UNKNOWN

§ Identity

Operator
Country
US
Launch date
2026-03-30
Launch site
AFETR
Launch vehicle
Mass (kg)
RCS (m²)

Purposes: comms

External: N2YO · Heavens-Above · Gunter

§ Orbital elements

Epoch: 2026-09-19T14:30:55.387872Z

Period
93.85 min
Inclination
53.1580°
Eccentricity
0.0001126
Mean motion
15.34403521 rev/d
Perigee alt
461.9 km
Apogee alt
463.5 km
Semi-major
6,840.8 km
B*
5.1964e-4
RAAN
303.6247°
Arg perigee
90.4721°
Mean anomaly
269.6411°
Rev number
2,670

§ Raw data

STARLINK-362501 68513U 26068F   26262.60480773  .00017223  00000+0  51964-3 0  99902 68513  53.1580 303.6247 0001126  90.4721 269.6411 15.34403521 26707

JSON: /api/v1/satellites/68513 · /tle

For live sub-satellite position, see the globe view (requires WebGL).

§ Visibility from observer

Set your observer location to see the next 7 days of passes ≥ 10°. The values pass through the URL so the page stays shareable.

No JS? Fill the form by hand. The geolocation button needs JavaScript.